• In Austria
  • List of Countries
  • For 7 days
  • Water Temperature
  • Satellite Maps
  • Weather Map
  • News
  • Weather Widgets
  • user-avatar
    Login

    Hourly Weather Dori

    Today, 24 February, Saturday

    Time Temperature Precipitation Wind Pressure Humidity
    00:00 +34°C° 0 mm 4 mps 731 mmHg 31%
    01:00 +34°C° 0 mm 4 mps 730 mmHg 35%
    02:00 +33°C° 0 mm 4 mps 730 mmHg 40%
    03:00 +33°C° 0 mm 4 mps 730 mmHg 44%
    04:00 +32°C° 0 mm 4 mps 730 mmHg 46%
    05:00 +32°C° 0 mm 4 mps 731 mmHg 49%
    06:00 +30°C° 0 mm 5 mps 731 mmHg 53%
    07:00 +32°C° 0.6 mm 6 mps 732 mmHg 51%
    08:00 +32°C° 0.6 mm 8 mps 732 mmHg 49%
    09:00 +33°C° 0.6 mm 9 mps 733 mmHg 47%
    10:00 +34°C° 0 mm 8 mps 733 mmHg 42%
    11:00 +37°C° 0 mm 8 mps 733 mmHg 37%
    12:00 +39°C° 0 mm 8 mps 733 mmHg 31%
    13:00 +39°C° 0 mm 8 mps 732 mmHg 30%
    14:00 +40°C° 0 mm 7 mps 732 mmHg 28%
    15:00 +40°C° 0 mm 7 mps 731 mmHg 27%
    16:00 +40°C° 0 mm 6 mps 731 mmHg 28%
    17:00 +39°C° 0 mm 5 mps 731 mmHg 29%
    18:00 +38°C° 0 mm 4 mps 731 mmHg 30%
    19:00 +37°C° 0.3 mm 4 mps 732 mmHg 32%
    20:00 +36°C° 0.3 mm 3 mps 732 mmHg 34%
    21:00 +35°C° 0.3 mm 3 mps 733 mmHg 36%
    22:00 +35°C° 0 mm 2 mps 733 mmHg 36%
    23:00 +34°C° 0 mm 2 mps 733 mmHg 37%

    Tomorrow, 25 February, Sunday

    Time Temperature Precipitation Wind Pressure Humidity
    00:00 +34°C° 0 mm 2 mps 733 mmHg 38%
    01:00 +33°C° 0 mm 3 mps 733 mmHg 37%
    02:00 +33°C° 0 mm 3 mps 733 mmHg 37%
    03:00 +32°C° 0 mm 4 mps 732 mmHg 37%
    04:00 +30°C° 0 mm 4 mps 732 mmHg 37%
    05:00 +29°C° 0 mm 4 mps 733 mmHg 37%
    06:00 +29°C° 0 mm 4 mps 733 mmHg 37%
    07:00 +30°C° 0 mm 4 mps 733 mmHg 35%
    08:00 +32°C° 0 mm 5 mps 734 mmHg 34%
    09:00 +32°C° 0 mm 5 mps 734 mmHg 32%
    10:00 +34°C° 0 mm 5 mps 734 mmHg 30%
    11:00 +36°C° 0 mm 5 mps 734 mmHg 27%
    12:00 +39°C° 0 mm 5 mps 734 mmHg 24%
    13:00 +40°C° 0 mm 5 mps 733 mmHg 23%
    14:00 +40°C° 0 mm 4 mps 732 mmHg 21%
    15:00 +40°C° 0 mm 3 mps 731 mmHg 20%
    16:00 +40°C° 0 mm 3 mps 731 mmHg 20%
    17:00 +39°C° 0 mm 3 mps 731 mmHg 21%
    18:00 +38°C° 0 mm 3 mps 731 mmHg 22%
    19:00 +37°C° 0 mm 4 mps 732 mmHg 22%
    20:00 +37°C° 0 mm 4 mps 732 mmHg 23%
    21:00 +36°C° 0 mm 4 mps 733 mmHg 24%
    22:00 +35°C° 0 mm 4 mps 733 mmHg 25%
    23:00 +34°C° 0 mm 4 mps 733 mmHg 26%

    Day after tomorrow, 26 February, Monday

    Time Temperature Precipitation Wind Pressure Humidity
    00:00 +33°C° 0 mm 3 mps 733 mmHg 27%
    01:00 +33°C° 0 mm 3 mps 732 mmHg 28%
    02:00 +31°C° 0 mm 3 mps 732 mmHg 29%
    03:00 +31°C° 0 mm 3 mps 732 mmHg 29%
    04:00 +30°C° 0 mm 3 mps 732 mmHg 30%
    05:00 +30°C° 0 mm 3 mps 732 mmHg 31%
    06:00 +29°C° 0 mm 3 mps 733 mmHg 31%
    07:00 +32°C° 0 mm 4 mps 733 mmHg 29%
    08:00 +34°C° 0 mm 4 mps 734 mmHg 27%
    09:00 +35°C° 0 mm 5 mps 735 mmHg 24%
    10:00 +36°C° 0 mm 4 mps 735 mmHg 23%
    11:00 +37°C° 0 mm 4 mps 734 mmHg 21%
    12:00 +39°C° 0 mm 3 mps 734 mmHg 20%
    13:00 +39°C° 0 mm 3 mps 733 mmHg 19%
    14:00 +40°C° 0 mm 2 mps 732 mmHg 18%
    15:00 +40°C° 0 mm 2 mps 732 mmHg 18%
    16:00 +40°C° 0 mm 2 mps 732 mmHg 18%
    17:00 +39°C° 0 mm 2 mps 732 mmHg 19%
    18:00 +39°C° 0 mm 2 mps 732 mmHg 19%
    19:00 +38°C° 0 mm 2 mps 732 mmHg 20%
    20:00 +37°C° 0 mm 2 mps 733 mmHg 21%
    21:00 +37°C° 0 mm 3 mps 733 mmHg 21%
    22:00 +36°C° 0 mm 3 mps 733 mmHg 22%
    23:00 +35°C° 0 mm 2 mps 733 mmHg 23%

    27 February, Tuesday

    Time Temperature Precipitation Wind Pressure Humidity
    00:00 +35°C° 0 mm 2 mps 733 mmHg 23%
    01:00 +34°C° 0 mm 2 mps 733 mmHg 24%
    02:00 +32°C° 0 mm 2 mps 732 mmHg 24%
    03:00 +32°C° 0 mm 2 mps 732 mmHg 25%
    04:00 +32°C° 0 mm 2 mps 732 mmHg 25%
    05:00 +31°C° 0 mm 2 mps 732 mmHg 24%
    06:00 +31°C° 0 mm 2 mps 732 mmHg 24%
    07:00 +32°C° 0 mm 2 mps 733 mmHg 22%
    08:00 +35°C° 0 mm 3 mps 734 mmHg 21%
    09:00 +36°C° 0 mm 3 mps 734 mmHg 19%
    10:00 +37°C° 0 mm 3 mps 734 mmHg 18%
    11:00 +38°C° 0 mm 4 mps 734 mmHg 17%
    12:00 +40°C° 0 mm 4 mps 733 mmHg 16%
    13:00 +40°C° 0 mm 4 mps 733 mmHg 15%
    14:00 +40°C° 0 mm 4 mps 732 mmHg 15%
    15:00 +41°C° 0 mm 4 mps 731 mmHg 15%
    16:00 +39°C° 0 mm 3 mps 731 mmHg 15%
    17:00 +38°C° 0 mm 3 mps 731 mmHg 16%
    18:00 +37°C° 0 mm 2 mps 732 mmHg 17%
    19:00 +36°C° 0 mm 2 mps 732 mmHg 18%
    20:00 +34°C° 0 mm 1 mps 733 mmHg 19%
    21:00 +34°C° 0 mm 1 mps 733 mmHg 20%
    22:00 +33°C° 0 mm 1 mps 733 mmHg 20%
    23:00 +33°C° 0 mm 1 mps 733 mmHg 20%

    28 February, Wednesday

    Time Temperature Precipitation Wind Pressure Humidity
    00:00 +34°C° 0 mm 2 mps 733 mmHg 20%
    01:00 +32°C° 0 mm 2 mps 732 mmHg 21%
    02:00 +31°C° 0 mm 2 mps 732 mmHg 22%
    03:00 +30°C° 0 mm 1 mps 732 mmHg 22%
    04:00 +30°C° 0 mm 2 mps 732 mmHg 22%
    05:00 +30°C° 0 mm 3 mps 733 mmHg 22%
    06:00 +30°C° 0 mm 4 mps 733 mmHg 21%
    07:00 +33°C° 0 mm 5 mps 734 mmHg 19%
    08:00 +35°C° 0 mm 6 mps 734 mmHg 17%
    09:00 +38°C° 0 mm 7 mps 735 mmHg 14%
    10:00 +40°C° 0 mm 7 mps 735 mmHg 13%
    11:00 +41°C° 0 mm 7 mps 734 mmHg 12%
    12:00 +44°C° 0 mm 7 mps 734 mmHg 10%
    13:00 +44°C° 0 mm 6 mps 733 mmHg 10%
    14:00 +45°C° 0 mm 6 mps 732 mmHg 10%
    15:00 +45°C° 0 mm 5 mps 732 mmHg 10%
    16:00 +43°C° 0 mm 5 mps 732 mmHg 11%
    17:00 +42°C° 0 mm 4 mps 732 mmHg 11%
    18:00 +41°C° 0 mm 4 mps 732 mmHg 12%
    19:00 +40°C° 0 mm 4 mps 732 mmHg 13%
    20:00 +38°C° 0 mm 4 mps 733 mmHg 13%
    21:00 +37°C° 0 mm 3 mps 734 mmHg 14%
    22:00 +36°C° 0 mm 3 mps 733 mmHg 15%
    23:00 +36°C° 0 mm 3 mps 733 mmHg 15%

    1 March, Thursday

    Time Temperature Precipitation Wind Pressure Humidity
    00:00 +35°C° 0 mm 3 mps 733 mmHg 16%
    01:00 +34°C° 0 mm 4 mps 733 mmHg 16%
    02:00 +34°C° 0 mm 4 mps 733 mmHg 16%
    03:00 +33°C° 0 mm 4 mps 732 mmHg 17%
    04:00 +33°C° 0 mm 4 mps 733 mmHg 17%
    05:00 +32°C° 0 mm 4 mps 733 mmHg 18%
    06:00 +30°C° 0 mm 4 mps 733 mmHg 18%
    07:00 +33°C° 0 mm 5 mps 734 mmHg 16%
    08:00 +35°C° 0 mm 6 mps 734 mmHg 14%
    09:00 +38°C° 0 mm 8 mps 735 mmHg 12%
    10:00 +40°C° 0 mm 7 mps 735 mmHg 11%
    11:00 +43°C° 0 mm 7 mps 734 mmHg 10%
    12:00 +45°C° 0 mm 7 mps 734 mmHg 9%
    13:00 +45°C° 0 mm 7 mps 733 mmHg 8%
    14:00 +45°C° 0 mm 6 mps 732 mmHg 8%
    15:00 +46°C° 0 mm 6 mps 731 mmHg 8%
    16:00 +45°C° 0 mm 5 mps 732 mmHg 8%
    17:00 +42°C° 0 mm 5 mps 732 mmHg 9%
    18:00 +41°C° 0 mm 4 mps 732 mmHg 9%
    19:00 +40°C° 0 mm 4 mps 732 mmHg 10%
    20:00 +38°C° 0 mm 4 mps 733 mmHg 10%
    21:00 +37°C° 0 mm 4 mps 733 mmHg 11%
    22:00 +36°C° 0 mm 4 mps 733 mmHg 11%
    23:00 +35°C° 0 mm 3 mps 733 mmHg 11%
    Show more